[[{"header":{"parameterUnit":"m.s-1","parameterCategory":1,"la1":30.2991,"la2":30.254,"lo1":-89.0895,"lo2":-89.0444,"dy":0.0017,"dx":0.0017,"nx":28,"ny":28,"refTime":"2024-07-01T03:00:00:Z","depth":0,"parameterNumber":2,"parameterNumberName":"U-component_of_WINDS"},"data":[0,0,0,0,0,0,0,0,0,0,0,0,0,0,0,0,0,0,0,0,0,0,0,0,0,0,0,0,0,0,0,0,0,0,0,0,0,0,0,0,0,0,0,0,0,0,0,0,0,0,0,0,0,0,0,0,0,0,-2.4024,-2.4025,0,-2.4072,-2.4072,-2.4073,-2.4082,-2.4081,-2.4081,-2.4081,-2.413,-2.4131,-2.4133,0,0,0,0,0,0,0,0,0,0,0,0,0,-2.3941,-2.3943,-2.4024,-2.4025,-2.4026,-2.4072,-2.4072,-2.4073,-2.4082,-2.4081,-2.4081,-2.408,-2.4129,-2.4131,-2.4133,0,0,0,0,0,0,0,0,0,0,0,0,0,-2.3982,-2.3943,-2.4024,-2.4036,-2.4037,-2.4072,-2.4072,-2.4073,-2.4082,-2.4081,-2.4081,-2.408,-2.4128,-2.4131,-2.4133,-2.416,0,0,-2.4141,-2.4142,0,0,0,0,0,0,0,0,-2.398,-2.3985,-2.4033,-2.4035,-2.4037,-2.407,-2.4061,-2.4102,-2.4082,-2.4065,-2.4081,-2.408,-2.411,-2.4114,-2.4125,-2.4163,-2.4165,-2.4141,-2.4143,-2.4144,-2.4144,0,0,0,0,0,0,0,-2.3977,-2.3983,-2.4043,-2.4034,-2.4036,-2.4038,-2.4043,-2.4069,-2.409,-2.4066,-2.4067,-2.4073,-2.4111,-2.4122,-2.4126,-2.4165,-2.4141,-2.4143,-2.4145,-2.4146,-2.4227,-2.4228,0,0,0,0,0,0,-2.3972,-2.3981,-2.4042,-2.4045,-2.4006,-2.404,-2.4046,-2.406,-2.409,-2.4094,-2.4073,-2.4073,-2.4118,-2.4123,-2.4127,-2.416,-2.4144,-2.4146,-2.4147,-2.4227,-2.4228,-2.4228,0,0,0,0,0,0,-2.397,-2.3977,-2.404,-2.4013,-2.4021,-2.4042,-2.4058,-2.4061,-2.4072,-2.4095,-2.4099,-2.408,-2.4118,-2.4124,-2.4152,-2.4162,-2.4147,-2.4149,-2.4226,-2.4227,-2.4228,-2.4226,0,0,0,0,0,0,-2.3968,-2.3977,-2.3987,-2.4013,-2.4022,-2.4063,-2.4059,-2.4063,-2.4076,-2.4077,-2.4103,-2.4107,-2.4118,-2.4148,-2.4154,-2.4165,-2.4151,-2.4225,-2.4226,-2.4228,-2.4226,-2.4227,-2.4229,0,0,0,0,0,-2.3965,-2.3985,-2.3988,-2.3995,-2.4036,-2.4064,-2.4069,-2.4081,-2.4077,-2.4088,-2.4102,-2.4106,-2.416,-2.4151,-2.4158,-2.417,-2.4225,-2.4226,-2.4228,-2.4225,-2.4227,-2.4229,0,0,0,0,0,0,-2.396,-2.3989,-2.3992,-2.4021,-2.404,-2.4065,-2.4079,-2.4083,-2.4104,-2.4103,-2.4118,-2.4124,-2.4151,-2.4163,-2.4152,-2.4197,-2.4192,-2.4195,-2.4188,-2.419,-2.4191,-2.4187,-2.4153,0,0,0,0,0,-2.3962,-2.3982,-2.4007,-2.403,-2.4039,-2.4057,-2.407,-2.4078,-2.4098,-2.4106,-2.4123,-2.4143,-2.4164,-2.4178,-2.4199,-2.4228,-2.4234,-2.424,-2.4241,-2.4242,-2.4244,-2.426,-2.4263,-2.4233,-2.4233,-2.4233,0,0,-2.3967,-2.3985,-2.3997,-2.4029,-2.4045,-2.4065,-2.4064,-2.4086,-2.4101,-2.411,-2.4137,-2.415,-2.4173,-2.4201,-2.4214,-2.4212,-2.4254,-2.4244,-2.4245,-2.4247,-2.4262,-2.4265,-2.4267,-2.4234,-2.4234,-2.4234,0,0,-2.3986,-2.4002,-2.4023,-2.4038,-2.4062,-2.4074,-2.4079,-2.4104,-2.4113,-2.414,-2.4147,-2.4166,-2.4203,-2.4218,-2.4231,-2.4256,-2.426,-2.4263,-2.427,-2.4286,-2.4288,-2.429,-2.4298,-2.4301,-2.4265,-2.4265,-2.4265,0,-2.3989,-2.402,-2.4033,-2.4054,-2.4068,-2.4077,-2.4098,-2.4113,-2.4142,-2.4151,-2.4149,-2.4195,-2.4211,-2.4243,-2.4249,-2.426,-2.4265,-2.4259,-2.4287,-2.4289,-2.4291,-2.4299,-2.4302,-2.4265,-2.4265,-2.4265,-2.4265,0,-2.4022,-2.4043,-2.4057,-2.4085,-2.4101,-2.4122,-2.4138,-2.4152,-2.4159,-2.4171,-2.4199,-2.4219,-2.4244,-2.4252,-2.4259,-2.4285,-2.4283,-2.4284,-2.4278,-2.4294,-2.4301,-2.4304,-2.4266,-2.4266,-2.4266,-2.4266,0,0,-2.4038,-2.4073,-2.4077,-2.409,-2.4117,-2.4134,-2.4155,-2.418,-2.4191,-2.4212,-2.423,-2.4261,-2.4261,-2.4276,-2.4285,-2.4298,-2.4316,-2.4297,-2.4298,-2.4299,-2.4345,-2.4343,-2.4347,-2.4319,-2.432,-2.432,-2.4343,0,-2.4059,-2.4097,-2.411,-2.4142,-2.4162,-2.417,-2.4189,-2.4208,-2.422,-2.4239,-2.4253,-2.4274,-2.4273,-2.4282,-2.4296,-2.4311,-2.4325,-2.431,-2.4336,-2.4336,-2.4328,-2.4351,-2.435,-2.437,-2.4346,-2.4346,-2.4347,0,-2.4088,-2.4109,-2.4142,-2.4166,-2.4175,-2.4192,-2.4215,-2.4233,-2.4254,-2.4262,-2.4279,-2.4287,-2.431,-2.4304,-2.4336,-2.4325,-2.4336,-2.4345,-2.4347,-2.4348,-2.4341,-2.4352,-2.4377,-2.4379,-2.4352,-2.4351,-2.4351,0,-2.4095,-2.4131,-2.4156,-2.4167,-2.4196,-2.4207,-2.422,-2.424,-2.4254,-2.4274,-2.4283,-2.4307,-2.4319,-2.4337,-2.4351,-2.4345,-2.4381,-2.4377,-2.4388,-2.4387,-2.4394,-2.4393,-2.4419,-2.4403,-2.4403,-2.4403,-2.4403,0,-2.4117,-2.4137,-2.4159,-2.4174,-2.4197,-2.4212,-2.4234,-2.4247,-2.4266,-2.4283,-2.4293,-2.431,-2.4328,-2.4347,-2.4358,-2.4382,-2.4388,-2.4395,-2.4397,-2.4393,-2.4392,-2.44,-2.4399,-2.4404,-2.4404,-2.4404,-2.4403,0,-2.4128,-2.4144,-2.4171,-2.4196,-2.4203,-2.4219,-2.424,-2.4255,-2.4268,-2.4291,-2.4297,-2.4317,-2.434,-2.4356,-2.4386,-2.4393,-2.4419,-2.4422,-2.4411,-2.4412,-2.4422,-2.4421,-2.4453,-2.4458,-2.444,-2.444,-2.444,0,-2.414,-2.4155,-2.4182,-2.4195,-2.4207,-2.4228,-2.4241,-2.4257,-2.4271,-2.4297,-2.4308,-2.4332,-2.4351,-2.4387,-2.4405,-2.4427,-2.443,-2.444,-2.4434,-2.4429,-2.4429,-2.4428,-2.4429,-2.4441,-2.4441,-2.4441,-2.4441,0,-2.4159,-2.4166,-2.4186,-2.4208,-2.4225,-2.4243,-2.4262,-2.4272,-2.429,-2.4306,-2.4329,-2.4344,-2.4374,-2.4397,-2.4422,-2.4435,-2.4441,-2.4443,-2.4447,-2.4442,-2.4435,-2.4438,-2.4413,-2.4442,-2.4442,-2.4442,-2.4442,-2.4442,-2.417,-2.4184,-2.4205,-2.4227,-2.4243,-2.426,-2.4275,-2.429,-2.4309,-2.4335,-2.4343,-2.4367,-2.4388,-2.4421,-2.4435,-2.4454,-2.4454,-2.4459,-2.446,-2.4461,-2.446,-2.4433,-2.4459,-2.4459,-2.4459,-2.4459,-2.4459,0,-2.4189,-2.4203,-2.4223,-2.4249,-2.4266,-2.427,-2.4291,-2.4305,-2.4326,-2.4345,-2.4364,-2.4391,-2.4413,-2.4433,-2.4456,-2.4467,-2.4471,-2.4473,-2.4472,-2.4475,-2.446,-2.4454,-2.447,-2.447,-2.447,-2.447,-2.447,-2.447,-2.4201,-2.4225,-2.4235,-2.4266,-2.428,-2.4303,-2.4315,-2.4331,-2.4346,-2.4375,-2.4394,-2.4406,-2.4426,-2.4451,-2.4471,-2.4477,-2.4484,-2.4486,-2.4491,-2.4477,-2.4476,-2.4474,-2.4469,-2.4487,-2.4488,-2.4504,-2.4505,-2.4505]},{"header":{"parameterUnit":"m.s-1","parameterCategory":1,"la1":30.2991,"la2":30.254,"lo1":-89.0895,"lo2":-89.0444,"dy":0.0017,"dx":0.0017,"nx":28,"ny":28,"refTime":"2024-07-01T03:00:00:Z","depth":0,"parameterNumber":3,"parameterNumberName":"V-component_of_WINDS"},"data":[0,0,0,0,0,0,0,0,0,0,0,0,0,0,0,0,0,0,0,0,0,0,0,0,0,0,0,0,0,0,0,0,0,0,0,0,0,0,0,0,0,0,0,0,0,0,0,0,0,0,0,0,0,0,0,0,0,0,3.3991,3.3993,0,3.4157,3.4159,3.4161,3.424,3.424,3.424,3.424,3.4408,3.4412,3.4417,0,0,0,0,0,0,0,0,0,0,0,0,0,3.3739,3.3743,3.3991,3.3993,3.3995,3.4157,3.4159,3.4162,3.424,3.424,3.424,3.424,3.4406,3.4412,3.4417,0,0,0,0,0,0,0,0,0,0,0,0,0,3.3871,3.3744,3.399,3.4054,3.4061,3.4157,3.4159,3.4162,3.424,3.424,3.424,3.424,3.4405,3.4411,3.4418,3.4462,0,0,3.4439,3.4442,0,0,0,0,0,0,0,0,3.3863,3.388,3.4042,3.405,3.4058,3.4178,3.4132,3.4263,3.424,3.4172,3.424,3.424,3.4331,3.4344,3.4375,3.447,3.4477,3.4439,3.4443,3.4446,3.4448,0,0,0,0,0,0,0,3.3854,3.3873,3.4057,3.4045,3.4054,3.4073,3.4092,3.4157,3.425,3.4178,3.4184,3.4203,3.4335,3.4369,3.438,3.4479,3.4439,3.4445,3.4449,3.4452,3.4619,3.4619,0,0,0,0,0,0,3.3835,3.3865,3.4051,3.4062,3.3959,3.4078,3.4099,3.414,3.425,3.4266,3.4203,3.4206,3.4357,3.4372,3.4386,3.4446,3.4446,3.4453,3.4456,3.4618,3.4619,3.4619,0,0,0,0,0,0,3.3829,3.3851,3.4045,3.3965,3.3991,3.4082,3.4128,3.4143,3.4176,3.4269,3.4285,3.422,3.4358,3.4377,3.4443,3.4453,3.4456,3.4462,3.4618,3.4619,3.4619,3.4564,0,0,0,0,0,0,3.3822,3.3848,3.3866,3.3965,3.3995,3.4099,3.4128,3.4146,3.4188,3.4194,3.4289,3.4305,3.4359,3.4432,3.445,3.4462,3.4467,3.4618,3.4618,3.4619,3.4566,3.4563,3.4561,0,0,0,0,0,3.3812,3.3844,3.3867,3.3889,3.402,3.4099,3.4117,3.4179,3.4189,3.4207,3.4267,3.4302,3.4448,3.4438,3.4459,3.4473,3.4617,3.4618,3.4619,3.4567,3.4563,3.4561,0,0,0,0,0,0,3.3743,3.3858,3.3885,3.3949,3.4014,3.4113,3.4138,3.4174,3.4237,3.4239,3.4314,3.4335,3.4394,3.444,3.4427,3.4522,3.4536,3.4541,3.449,3.4487,3.4485,3.4472,3.4473,0,0,0,0,0,3.3735,3.3791,3.3888,3.3935,3.3967,3.4046,3.4083,3.4126,3.4196,3.4224,3.4288,3.4354,3.4415,3.4454,3.4515,3.4573,3.4595,3.4593,3.459,3.4587,3.4591,3.4625,3.4626,3.4622,3.4622,3.4622,0,0,3.372,3.3789,3.382,3.3923,3.3978,3.4034,3.4069,3.4126,3.4168,3.4232,3.4299,3.4348,3.4427,3.4489,3.452,3.4529,3.4597,3.4588,3.4586,3.4591,3.4626,3.4626,3.4627,3.4623,3.4622,3.4622,0,0,3.372,3.3778,3.3824,3.3879,3.3963,3.4016,3.4027,3.412,3.4156,3.4224,3.4274,3.4324,3.4428,3.4482,3.4523,3.4543,3.4578,3.4561,3.4548,3.4581,3.4581,3.4582,3.459,3.4591,3.4564,3.4564,3.4564,0,3.369,3.3776,3.3843,3.3898,3.3942,3.4003,3.4051,3.41,3.4199,3.4228,3.4237,3.4369,3.4426,3.4502,3.4507,3.4538,3.4553,3.4551,3.4576,3.4577,3.4579,3.4587,3.459,3.4562,3.4562,3.4562,3.4562,0,3.3735,3.3794,3.3821,3.3916,3.3963,3.4013,3.4088,3.4127,3.4166,3.4217,3.4286,3.4357,3.4434,3.4455,3.4493,3.4537,3.454,3.4561,3.4578,3.4575,3.4584,3.4588,3.4558,3.4559,3.456,3.456,0,0,3.3697,3.3828,3.3837,3.3881,3.3978,3.4025,3.4078,3.4154,3.4186,3.4252,3.4298,3.4385,3.4406,3.4452,3.4497,3.4525,3.4538,3.4544,3.4547,3.454,3.4591,3.4574,3.4577,3.4561,3.4562,3.4563,3.4585,0,3.3711,3.381,3.3871,3.3945,3.4,3.406,3.4106,3.417,3.422,3.4273,3.4328,3.4389,3.4411,3.444,3.4471,3.4529,3.4549,3.4529,3.4605,3.4607,3.4584,3.4582,3.4565,3.4582,3.4588,3.4589,3.459,0,3.374,3.3806,3.3885,3.3976,3.4002,3.4042,3.4117,3.4168,3.4242,3.4276,3.4328,3.4373,3.4431,3.4442,3.4523,3.4507,3.4542,3.4576,3.4578,3.4588,3.4598,3.4592,3.4589,3.4591,3.4596,3.4595,3.4595,0,3.3705,3.3812,3.3874,3.391,3.4018,3.4045,3.4091,3.4165,3.4207,3.4272,3.43,3.437,3.4409,3.4462,3.4525,3.4527,3.46,3.4616,3.463,3.4628,3.4643,3.4641,3.4646,3.4664,3.4664,3.4664,3.4664,0,3.3714,3.376,3.386,3.3898,3.3951,3.4022,3.4073,3.4123,3.4188,3.4237,3.4292,3.4336,3.4416,3.447,3.452,3.4579,3.4596,3.4625,3.4638,3.4621,3.4617,3.4645,3.4645,3.4665,3.4665,3.4664,3.4664,0,3.3684,3.3752,3.3823,3.392,3.3945,3.398,3.4062,3.4101,3.4154,3.4215,3.4233,3.4315,3.4382,3.445,3.4539,3.4573,3.4631,3.4648,3.4606,3.4614,3.4624,3.4622,3.4647,3.4654,3.4666,3.4666,3.4666,0,3.3685,3.3723,3.3823,3.386,3.3905,3.3963,3.4007,3.4077,3.412,3.4207,3.4235,3.4306,3.4366,3.4469,3.4537,3.4606,3.4626,3.4629,3.4636,3.4618,3.4626,3.4623,3.4628,3.4627,3.4626,3.4626,3.4626,0,3.3681,3.3713,3.3774,3.3847,3.3897,3.3958,3.402,3.4047,3.4129,3.4175,3.4244,3.4291,3.4383,3.4452,3.4529,3.4576,3.4615,3.4623,3.463,3.4613,3.4587,3.4602,3.46,3.4622,3.4622,3.4623,3.4623,3.4623,3.3668,3.3704,3.378,3.3846,3.39,3.3958,3.3999,3.4057,3.4116,3.4197,3.4235,3.4304,3.4377,3.4485,3.4531,3.4586,3.4597,3.4607,3.4609,3.4611,3.4607,3.4578,3.46,3.46,3.4601,3.4601,3.4601,0,3.3667,3.3719,3.3779,3.3865,3.3917,3.3949,3.402,3.4061,3.4121,3.4187,3.4245,3.4325,3.4392,3.4465,3.4538,3.4568,3.4587,3.4584,3.4583,3.4593,3.4593,3.458,3.4567,3.4567,3.4567,3.4567,3.4567,3.4567,3.3673,3.3735,3.3776,3.3867,3.3919,3.3988,3.4025,3.4078,3.4131,3.4217,3.4274,3.4322,3.439,3.4468,3.4532,3.4551,3.4575,3.4567,3.4592,3.4591,3.4593,3.4596,3.4584,3.4572,3.4572,3.4588,3.4588,3.4588]}]]